Regional Weather Roundup
Issued by NWS

Home | Current Version | Previous Version | Text Only | Print | Product List | Glossary Off
Versions: 1 2 3 4 5 6 7 8 9 10 11 12 13 14 15 16 17 18 19 20 21 22 23 24 25 26 27 28 29 30 31 32 33 34 35 36 37 38 39 40 41 42 43 44 45 46 47 48 49 50

000
ASUS43 KOAX 302302
RWRNE

WEATHER ROUNDUP FOR NEBRASKA
NATIONAL WEATHER SERVICE OMAHA NE
600 PM CDT SAT APR 30 2016

NOTES: SATELLITE DATA IS BEING USED TO AUGMENT CLOUD COVER ABOVE
       12000 FEET.
       "FAIR" INDICATES FEW OR NO CLOUDS BELOW 12,000 FEET WITH NO
       SIGNIFICANT WEATHER AND/OR OBSTRUCTIONS TO VISIBILITY.

  * THESE STATIONS DO NOT REPORT WEATHER SUCH AS RAIN...SNOW OR FOG.

NEZ001>004-019>022-054>056-010000-
NEBRASKA PANHANDLE

CITY           SKY/WX    TMP DP  RH WIND       PRES   REMARKS
SCOTTSBLUFF    LGT RAIN  38  32  79 N14G22    30.06R WCI  30
ALLIANCE       LGT SNOW  33  32  96 N15       30.01R FOG     WCI  23
CHADRON        CLOUDY    46  34  62 NE23G31   30.05R
KIMBALL        LGT SNOW  33  33  98 N17G24    30.03R VSB 3/4 WCI  23
SIDNEY         LGT SNOW  34  31  88 N22       30.00R VSB 3/4 WCI  22
$$

NEZ057>060-069>072-079>082-010000-
SOUTHWEST NEBRASKA

CITY           SKY/WX    TMP DP  RH WIND       PRES   REMARKS
NORTH PLATTE   CLOUDY    37  34  89 N23G30    29.88R WCI  26
IMPERIAL       CLOUDY    37  34  89 N20       29.92R WCI  27
LEXINGTON      LGT RAIN  41  37  86 N14       29.85R
MCCOOK         CLOUDY    40  35  83 N13       29.87R WCI  32
$$

NEZ005>010-023>029-035>040-094-010000-
NORTH CENTRAL NEBRASKA

CITY           SKY/WX    TMP DP  RH WIND       PRES   REMARKS
VALENTINE      LGT RAIN  39  35  86 NE21G31   29.98R WCI  29
AINSWORTH      LGT RAIN  38  37  97 N17G25    29.94R WCI  28
BROKEN BOW     RAIN      40  38  93 N14       29.85R FOG     WCI  32
ORD            CLOUDY    44  41  89 N12       29.82S
$$

NEZ041-046>049-061>064-073>077-083>087-010000-
SOUTH CENTRAL NEBRASKA

CITY           SKY/WX    TMP DP  RH WIND       PRES   REMARKS
GRAND ISLAND   CLOUDY    47  44  90 N12       29.80R
AURORA         CLOUDY    49  47  93 N8        29.78R
HASTINGS       CLOUDY    47  42  83 N7        29.79R
KEARNEY *      CLOUDY    45  39  81 N12       29.81S
YORK           CLOUDY    50  48  93 N10       29.77S
$$

NEZ011>018-030>034-042>045-010000-
NORTHEAST NEBRASKA

CITY           SKY/WX    TMP DP  RH WIND       PRES   REMARKS
NORFOLK        LGT RAIN  46  44  93 NE15      29.82R FOG
ALBION         RAIN      45  44  94 NE12      29.82R
BLAIR          CLOUDY    49  47  96 NE12      29.79R FOG
COLUMBUS *     CLOUDY    46  39  76 NE12      29.81R
FREMONT        LGT RAIN  48  47  97 NE9G17    29.80R
TEKAMAH        CLOUDY    49  47  93 NE14      29.82R
$$

NEZ050>053-065>068-078-088>093-010000-
SOUTHEAST NEBRASKA

CITY           SKY/WX    TMP DP  RH WIND       PRES   REMARKS
LINCOLN        CLOUDY    52  50  93 NE9       29.78R FOG
OMAHA EPPLEY   CLOUDY    50  48  93 E12       29.79R FOG
FALLS CITY     CLOUDY    62  50  64 W14       29.75R
$$

NEZ044-045-051>053-067-010000-
OMAHA AREA

CITY           SKY/WX    TMP DP  RH WIND       PRES   REMARKS
OMAHA EPPLEY   CLOUDY    50  48  93 E12       29.79R FOG
BLAIR          CLOUDY    49  47  96 NE12      29.79R FOG
FREMONT        LGT RAIN  48  47  97 NE9G17    29.80R
$$



USA.gov is the U.S. government's official web portal to all federal, state and local government web resources and services.